#timestamp,LO_Frequency,Hit 
1504832415.1,286047007.5,P
1504832416.0,286047007.5,N
1504832435.8,286047005.7,N
1504832455.7,286047007.6,P
1504832475.5,286046999.9,N
1504832495.3,286046998.4,N
1504832515.1,286046993.7,N
1504832535.9,286046994.1,N
1504832555.7,286046997.1,N
1504832575.5,286046998.9,N
1504832595.4,286046999.3,N
1504832615.2,286046994.5,N
1504832635.0,286046992.2,N
1504832635.9,286046992.2,N
1504832655.8,286046992.0,N
1504832675.6,286046999.0,N
1504832695.4,286047000.6,N
1504832715.3,286046999.3,N
1504832735.1,286046997.4,N
1504832736.0,286046997.4,N
1504832755.8,286046994.2,N
1504832775.7,286046998.3,N
1504832795.5,286046999.4,N
1504832815.3,286046997.8,N
1504832835.1,286046997.0,N
1504832855.9,286046994.9,N
1504832875.7,286046996.4,N
1504832895.5,286046996.3,N
1504832915.4,286046997.0,N
1504832935.2,286047000.4,N
1504832955.0,286047001.6,N
1504832955.9,286047001.6,N
1504832975.8,286047001.7,N
1504832995.6,286047001.7,N
1504833015.4,286047006.0,N
1504833035.3,286047005.8,N
1504833055.1,286047004.7,N
1504833056.0,286047004.7,N
1504833075.8,286047005.4,N
1504833095.7,286047005.3,N
1504833115.5,286047006.9,N
1504833135.3,286047005.1,N
1504833155.1,286047003.6,N
1504833175.9,286047003.8,N
1504833195.7,286047007.5,N
1504833215.5,286047003.0,N
1504833235.4,286047005.2,N
1504833255.2,286047005.5,N
1504833275.0,286047005.2,N
1504833275.9,286047005.2,N
1504833295.8,286047005.0,N
1504833315.6,286047002.9,N
1504833335.4,286047001.2,N
1504833355.3,286046995.6,N
1504833375.1,286046999.6,N
1504833376.0,286046999.6,N
1504833395.8,286046998.1,N
1504833415.7,286047004.0,N
1504833435.5,286047005.4,N
1504833455.3,286047004.6,N
1504833475.2,286047002.6,N
1504833495.9,286047001.3,N
1504833515.7,286047000.0,N
1504833535.5,286047003.2,N
1504833555.4,286047004.1,N
1504833575.2,286047005.2,N
1504833595.0,286047002.5,N
1504833595.9,286047002.5,N
1504833615.8,286047002.4,N
1504833635.6,286047003.8,N
1504833655.4,286047007.5,N
1504833675.3,286047008.7,P
1504833695.1,286047007.3,N
1504833715.8,286047008.7,P
1504833735.7,286047008.8,P
1504833755.5,286046995.1,P
1504833775.3,286046994.3,N
1504833795.2,286046999.3,N
1504833815.0,286046996.0,N
1504833815.9,286046996.0,N
1504833835.7,286046996.2,N
1504833855.6,286046997.5,N
1504833875.4,286046990.8,N
1504833895.2,286046987.6,N
1504833915.1,286046987.4,N
1504833916.0,286046987.4,N
1504833935.8,286046988.2,N
1504833955.6,286046988.3,N
1504833975.5,286046987.5,N
1504833995.3,286046985.5,N
1504834015.1,286046982.2,N
1504834035.9,286046986.5,N
1504834055.7,286046987.9,N
1504834075.5,286046987.0,N
1504834095.3,286046989.1,N
1504834115.2,286046990.1,N
1504834135.0,286046994.5,N
1504834135.9,286046994.5,N
1504834155.7,286046995.9,N
1504834175.6,286046996.0,N
1504834195.4,286046997.7,N
1504834215.2,286046995.5,N
1504834235.1,286046990.3,N
1504834236.0,286046990.3,N
1504834255.8,286046990.0,N
1504834275.6,286046987.7,N
1504834295.5,286046987.4,N
1504834315.3,286046992.6,N
1504834335.1,286046993.4,N
1504834355.9,286046991.4,N
1504834375.7,286046993.4,N
1504834395.5,286046995.8,N
1504834415.3,286047002.7,N
1504834435.2,286046999.3,N
1504834455.0,286046995.9,N
1504834455.9,286046995.9,N
1504834475.7,286046996.4,N
1504834495.6,286046997.4,N
1504834515.4,286046999.1,N
1504834535.2,286047000.7,N
1504834555.1,286046999.0,N
1504834556.0,286046999.0,N
1504834575.8,286046997.1,N
1504834595.6,286047000.1,N
1504834615.5,286047001.6,N
1504834635.3,286046997.7,N
1504834655.1,286047001.7,N
1504834675.9,286047005.6,N
1504834695.7,286047004.1,N
1504834715.5,286047003.8,N
1504834735.4,286047003.0,N
1504834755.2,286046996.8,N
1504834775.0,286046999.3,N
1504834775.9,286046999.3,N
1504834795.8,286047001.4,N
1504834815.6,286047005.4,N
1504834835.4,286047006.3,N
1504834855.2,286047005.2,N
1504834875.1,286047005.3,N
1504834876.0,286047005.3,N
1504834895.8,286047004.9,N
1504834915.6,286047005.6,N
1504834935.5,286046998.6,N
1504834955.3,286047000.4,N
1504834975.1,286047001.4,N
1504834995.9,286047000.0,N
1504835015.7,286047001.4,N
1504835035.5,286047003.5,N
1504835055.4,286047006.7,N
1504835075.2,286047008.1,N
1504835095.0,286047005.8,N
1504835095.9,286047005.8,N
1504835115.8,286047004.7,N
1504835135.6,286047001.5,N
1504835155.4,286046996.8,N
1504835175.3,286046993.4,N
1504835195.1,286047000.8,N
1504835196.0,286047000.8,N
1504835215.8,286047004.3,N
1504835235.6,286047008.7,N
1504835255.5,286047006.5,N
1504835275.3,286047005.8,N
1504835295.1,286047006.6,N
1504835315.9,286047011.9,P
1504835335.7,286047010.7,N
1504835355.5,286047008.4,N
1504835375.4,286047001.5,N
1504835395.2,286047004.6,N
1504835415.0,286047003.3,N
1504835415.9,286047003.3,N
1504835435.8,286046999.6,N
1504835455.6,286046995.6,N
1504835475.4,286046998.2,N
1504835495.3,286047002.4,N
1504835515.1,286047001.5,N
1504835535.8,286047000.5,N
1504835555.7,286047002.3,N
1504835575.5,286047002.9,N
1504835595.3,286047003.8,N
1504835615.2,286047003.9,N
1504835635.9,286047005.1,N
1504835655.7,286047009.0,N
1504835675.5,286047008.1,N
1504835695.4,286047008.3,N
1504835715.2,286047008.4,N
1504835735.0,286047007.0,N
1504835735.9,286047007.0,N
1504835755.8,286047007.1,N
1504835775.6,286047006.6,N
1504835795.4,286047008.9,N
1504835815.3,286047011.0,N
1504835835.1,286047012.7,P
1504835855.8,286047010.3,N
1504835875.7,286047004.9,N
1504835895.5,286047003.0,N
1504835915.3,286047004.1,N
1504835935.2,286046999.8,N
1504835955.9,286047002.7,N
1504835975.7,286047004.8,N
1504835995.6,286047005.5,N
